This demonstration page uses our WeatherBlox Daily Observations layout. Learn more.

Left ArrowRight Arrow

Hourly Observations for December 11, 2019

Temp ( °F °C ) Dew Point ( °F °C ) Humidity (%) Winds ( mph kmh ) Pressure ( in mb ) Visibility ( mi km ) Precip ( " mm )
12:53 am 00:53 Clear 17 -8.3 14 -10 88 88 ENE 17 28 30.09 1019 10 16 0.00 0.00
1:53 am 01:53 Clear 16 -8.9 12 -11.1 84 84 ENE 15 24 30.07 1018 10 16 0.00 0.00
2:53 am 02:53 Clear 13 -10.6 11 -11.7 92 92 ENE 13 20 30.06 1018 10 16 0.00 0.00
3:53 am 03:53 Clear 12 -11.1 10 -12.2 92 92 E 9 15 30.05 1018 10 16 0.00 0.00
4:53 am 04:53 Clear 8 -13.3 5 -15 87 87 Calm 30.04 1017 10 16 0.00 0.00
5:21 am 05:21 Mostly Clear 9 -12.8 6 -14.4 88 88 WSW 3 6 30.15 1021 10 16 0.00 0.00
5:53 am 05:53 undefined 10 -12.2 8 -13.3 92 92 SW 5 7 30.04 1017 10 16 0.00 0.00
6:11 am 06:11 Cloudy 12 -11.1 9 -12.8 87 87 SSW 8 13 30.13 1020 8 13 0.00 0.00
6:49 am 06:49 Partly Cloudy 10 -12 9 -13 92 92 W 3 6 30.12 1020 10 16 0.00 0.00
6:53 am 06:53 Mostly Clear 11 -11.7 8 -13.3 88 88 WSW 5 7 30.02 1017 10 16 0.00 0.00
7:53 am 07:53 Cloudy with Mist and Fog 12 -11.1 9 -12.8 87 87 NW 3 6 30.01 1016 4 6 0.00 0.00
8:53 am 08:53 Cloudy 12 -11.1 10 -12.2 92 92 Calm 30.02 1017 8 13 0.00 0.00
9:53 am 09:53 Cloudy 15 -9.4 12 -11.1 88 88 Calm 30.01 1016 10 16 0.00 0.00
10:53 am 10:53 Cloudy with Light Snow 16 -8.9 13 -10.6 88 88 SSW 3 6 29.99 1016 3 4 0.00 0.00
11:12 am 11:12 Cloudy with Light Snow 17 -8.3 14 -10 88 88 SSE 7 11 30.04 1017 4 6 0.00 0.00
11:53 am 11:53 Cloudy 18 -7.8 14 -10 84 84 NW 8 13 29.96 1015 10 16 0.00 0.00
12:53 pm 12:53 Cloudy 20 -6.7 15 -9.4 81 81 Calm 29.96 1015 10 16 0.00 0.00
1:53 pm 13:53 Cloudy 20 -6.7 15 -9.4 81 81 S 5 7 29.98 1015 10 16 0.00 0.00
2:53 pm 14:53 Mostly Sunny 19 -7.2 14 -10 81 81 WSW 6 9 30.00 1016 10 16 0.00 0.00
3:08 pm 15:08 Mostly Cloudy 19 -7 16 -9 86 86 WSW 5 7 30.05 1017 10 16 0.00 0.00
3:32 pm 15:32 Cloudy 20 -6.7 16 -8.9 85 85 W 6 9 30.05 1018 10 16 0.00 0.00
3:53 pm 15:53 Cloudy with Mist and Fog 20 -6.7 16 -8.9 85 85 W 8 13 30.02 1017 6 10 0.00 0.00
4:11 pm 16:11 Cloudy with Light Snow 21 -6.1 17 -8.3 85 85 W 7 11 30.07 1018 2 3 0.00 0.00
4:20 pm 16:20 Cloudy with Light Snow 21 -6 18 -8 86 86 WNW 7 11 30.08 1018 1 2 0.00 0.00
4:33 pm 16:33 Cloudy with Light Snow 20 -6.7 17 -8.3 89 89 WNW 8 13 30.08 1019 2 2 0.01 0.25
4:40 pm 16:40 Cloudy with Light Snow 20 -6.7 16 -8.9 85 85 WNW 8 13 30.09 1019 2 3 0.01 0.25
4:51 pm 16:51 Cloudy with Light Snow 19 -7 16 -9 86 86 W 7 11 30.10 1019 4 6 0.01 0.25
4:53 pm 16:53 Cloudy with Light Snow 20 -6.7 16 -8.9 85 85 WNW 6 9 30.06 1018 5 8 0.01 0.25
5:25 pm 17:25 Cloudy 20 -6.7 16 -8.9 85 85 Calm 30.10 1019 10 16 0.00 0.00
5:33 pm 17:33 Cloudy 20 -6.7 15 -9.4 81 81 NW 5 7 30.10 1019 10 16 0.00 0.00
5:53 pm 17:53 Mostly Cloudy 18 -7.8 13 -10.6 81 81 WNW 5 7 30.08 1019 10 16 0.00 0.00
6:53 pm 18:53 Clear 11 -11.7 10 -12.2 96 96 SW 3 6 30.08 1019 10 16 0.00 0.00
7:53 pm 19:53 Clear with Mist and Fog 11 -11.7 9 -12.8 92 92 NW 3 6 30.08 1019 5 8 0.00 0.00
8:53 pm 20:53 Clear 10 -12.2 7 -13.9 87 87 Calm 30.08 1019 8 13 0.00 0.00
9:53 pm 21:53 Clear 6 -14.4 3 -16.1 87 87 S 5 7 30.06 1018 9 14 0.00 0.00
10:49 pm 22:49 Partly Cloudy with Mist and Fog 5 -15 1 -17 85 85 WSW 3 6 30.19 1022 5 8 0.00 0.00
10:53 pm 22:53 Mostly Clear with Mist and Fog 5 -15 2 -16.7 87 87 Calm 30.06 1018 4 6 0.00 0.00
11:08 pm 23:08 Mostly Cloudy with Mist and Fog 5 -15 3 -16 92 92 SSW 3 6 30.18 1022 2 3 0.00 0.00
11:10 pm 23:10 Mostly Cloudy with Mist and Fog 5 -15 3 -16.1 91 91 SW 3 6 30.18 1022 1 2 0.00 0.00
11:19 pm 23:19 Mostly Cloudy with Mist and Fog 5 -15 2 -16.7 87 87 S 3 6 30.18 1022 3 4 0.00 0.00
11:26 pm 23:26 Mostly Cloudy 6 -14.4 3 -16.1 87 87 Calm 30.17 1022 8 13 0.00 0.00
11:33 pm 23:33 Partly Cloudy 5 -15 2 -16.7 87 87 Calm 30.18 1022 8 13 0.00 0.00
11:53 pm 23:53 Clear with Mist and Fog 5 -15 2 -16.7 87 87 ENE 5 7 30.04 1017 6 10 0.00 0.00

Powered by AerisWeather